Home > Weather > Skagen > Past weeks

Flag for Denmark Past Weather in Skagen, Denmark — Yesterday and Last 2 Weeks

Now
68 °F

Broken clouds.


Feels Like: 68 °F
Forecast: 56 / 63 °F
Wind: 6 mph from Southeast

Location: Gothenburg / Save

Current Time: Jun 26, 2016 at 8:35:29 AM

Latest Report: Jun 26, 2016 at 7:50 AM


Visibility: N/A

Pressure: 29.71 "Hg

Humidity: 88%

Dew Point: 64 °F

Location of SkagenLocation

Past Weather in Skagen — Graph

°F

Skagen Temperature Yesterday

Maximum temperature yesterday: 72 °F (at 6:50 PM)
Minimum temperature yesterday: 59 °F (at 2:50 AM)
Average temperature yesterday: 64 °F

High & Low Weather Summary for the Past Weeks

 TemperatureHumidityPressure
High75 °F (Jun 24, 1:20 PM)100% (Jun 14, 2:50 AM)30.21 "Hg (Jun 14, 2:50 AM)
Low41 °F (Jun 12, 4:50 AM)27% (Jun 13, 5:20 PM)29.53 "Hg (Jun 15, 4:20 AM)
Average60 °F76%29.84 "Hg
* Reported Jun 11 7:20 AM — Jun 26 7:20 AM, Skagen, Weather by CustomWeather, © 2016

Note: Actual official high and low records may vary slightly from our data, if they occured in-between our weather recording intervals... More about our weather records

Advertising

Skagen Weather History for the Previous 24 Hours

Scroll right to see more
 ConditionsComfort  
Time TempWeatherWind HumidityBarometerVisibility
7:20 AM
Sun, Jun 26
68 °FClear.6 mph88%29.71 "HgN/A
6:50 AM68 °FClear.6 mph88%29.71 "HgN/A
6:20 AM66 °FScattered clouds.5 mph94%29.71 "HgN/A
5:50 AM66 °FScattered clouds.5 mph94%29.71 "HgN/A
5:20 AM66 °FCloudy.8 mph94%29.71 "HgN/A
4:50 AM64 °FLight rain. Mostly cloudy.12 mph94%29.71 "Hg5 mi
4:20 AM64 °FHeavy rain. Partly cloudy.6 mph83%29.71 "Hg3 mi
3:50 AM64 °FPassing clouds.6 mph78%29.71 "HgN/A
3:20 AM64 °FOvercast.8 mph73%29.71 "HgN/A
2:50 AM64 °FPassing clouds.7 mph68%29.74 "HgN/A
2:20 AM63 °FPassing clouds.6 mph73%29.74 "HgN/A
1:50 AM64 °FPassing clouds.5 mph68%29.77 "HgN/A
1:20 AM64 °FPassing clouds.5 mph68%29.77 "HgN/A
12:50 AM64 °FPassing clouds.5 mph64%29.77 "HgN/A
12:20 AM66 °FPassing clouds.7 mph60%29.77 "HgN/A
11:50 PM
Sat, Jun 25
66 °FPassing clouds.10 mph64%29.80 "HgN/A
11:20 PM64 °FPassing clouds.7 mph78%29.80 "HgN/A
10:50 PM66 °FLight rain. Broken clouds.8 mph68%29.83 "HgN/A
10:20 PM68 °FPartly sunny.12 mph69%29.83 "HgN/A
9:50 PM72 °FThundershowers. Scattered clouds.6 mph61%29.86 "HgN/A
9:20 PM72 °FSunny.7 mph61%29.86 "Hg10 mi
8:50 PM70 °FSunny.7 mph78%29.86 "Hg10 mi
8:20 PM72 °FSunny.9 mph73%29.86 "Hg10 mi
7:50 PM72 °FSunny.6 mph73%29.89 "Hg10 mi
7:20 PM72 °FSunny.8 mph69%29.89 "Hg10 mi
6:50 PM72 °FSunny.7 mph69%29.89 "Hg10 mi
6:20 PM70 °FSunny.8 mph73%29.92 "Hg10 mi
5:50 PM68 °FSunny.9 mph73%29.92 "Hg10 mi
5:20 PM66 °FSunny.7 mph78%29.95 "Hg10 mi
4:50 PM68 °FSunny.7 mph73%29.95 "Hg10 mi
4:20 PM66 °FSunny.9 mph78%29.95 "Hg10 mi
3:50 PM68 °FSunny.9 mph73%29.98 "Hg10 mi
3:20 PM68 °FSunny.8 mph78%29.98 "Hg10 mi
2:50 PM68 °FSunny.9 mph73%29.98 "Hg10 mi
2:20 PM68 °FPassing clouds.8 mph73%29.98 "HgN/A
1:50 PM66 °FSunny.8 mph78%30.01 "Hg10 mi
1:20 PM66 °FPassing clouds.9 mph73%30.01 "HgN/A
12:50 PM66 °FScattered clouds.6 mph78%30.01 "HgN/A
12:20 PM64 °FScattered clouds.6 mph78%30.01 "HgN/A
11:50 AM63 °FPartly sunny.2 mph77%30.04 "HgN/A
11:20 AM63 °FPartly sunny.1 mph83%30.01 "HgN/A
10:50 AM61 °FPartly sunny.2 mph83%30.01 "HgN/A
10:20 AM61 °FPartly sunny.No wind83%30.01 "HgN/A
9:50 AM59 °FLow clouds.6 mph88%30.01 "HgN/A
9:20 AM59 °FPartly sunny.5 mph88%30.01 "HgN/A
8:50 AM59 °FPartly sunny.3 mph88%30.01 "HgN/A
8:20 AM59 °FPartly sunny.7 mph88%30.01 "HgN/A
Weather by CustomWeather, © 2016

See weather overviewHow to use our weather pages